Погода в Брчко

Босния и Герцеговина     44°52′36″N   18°48′37″E
темп.,
°C
ветер,
м/с
пор.,
м/с
влажн.,
%
обл.,
%
осадки,
мм/ч
давл.,
гПа
погр.,
м
1 марта, пн
пн101:00+4зсз12720 0.0 103322
04:00+3зсз22780 0.0 103226
07:00+3зсз23800 0.0 103266
10:00+8сз45570 0.0 1033902
13:00+10ссз34520 0.0 10321061
16:00+11св34490 0.0 10321456
19:00+7св23700 0.0 103458
22:00+6св12760 0.0 103522
2 марта, вт
вт201:00+4св11830 0.0 103622
04:00+3ссв12890 0.0 103622
07:00+3ссв01890 0.0 103722
10:00+9с11640 0.0 1036482
13:00+12ссв12460 0.0 1035921
16:00+12св22430 0.0 1033931
19:00+8вюв12580 0.0 103422
22:00+6ююв11610 0.0 103522
3 марта, ср
ср301:00+5ю11670 0.0 103422
04:00+4ю11710 0.0 103322
07:00+4ю11740 0.0 103322
10:00+10вюв12530 0.0 1032401
13:00+14вюв23390 0.0 1030758
16:00+14в34420 0.0 1028712
19:00+9в23590 0.0 102824
22:00+7юв22670 0.0 102722
4 марта, чт
чт401:00+6зюз11700 0.0 102622
04:00+5з127311 0.0 102422
07:00+5зюз127432 0.0 102322
10:00+12зюз125284 0.0 1022345
13:00+16з123864 0.0 1019802
16:00+16сз124090 0.0 1017240
19:00+10зюз115193 0.0 101722
22:00+10ююз225596 0.0 101722
5 марта, пт
пт501:00+8з235895 0.0 101724
04:00+6юз236568 0.0 101628
07:00+6зюз226641 0.0 101631
10:00+12зюз244017 0.0 1016453
13:00+16з46349 0.0 10151684
16:00+15зсз24385 0.0 10141817
19:00+11сз225949 0.0 101528
22:00+11в116491 0.2 101723